This is the latest recevied weather packets stored in our database for station/object N7ZAP. If no packets are shown the sender has not sent any weather packets the latest 10 day(s).
| Time | Temp. | Humidity | Pressure | Rain* | Wind** | Luminosity | Snow |
|---|---|---|---|---|---|---|---|
| 1777764107 | 19.44° C | 32% | 1020.6 hPa | 0 mm | - | - | - |
| 1777763803 | 20° C | 31% | 1020.5 hPa | 0 mm | - | - | - |
| 1777763501 | 19.44° C | 32% | 1020.5 hPa | 0 mm | - | - | - |
| 1777763200 | 20° C | 31% | 1020.7 hPa | 0 mm | - | - | - |
| 1777762898 | 20.56° C | 31% | 1020.6 hPa | 0 mm | - | - | - |
| 1777762593 | 20.56° C | 32% | 1020.6 hPa | 0 mm | - | - | - |
| 1777762291 | 20.56° C | 32% | 1020.4 hPa | 0 mm | - | - | - |
| 1777761987 | 21.11° C | 31% | 1020.6 hPa | 0 mm | - | - | - |
| 1777761683 | 20.56° C | 32% | 1020.9 hPa | 0 mm | - | - | - |
| 1777761381 | 20.56° C | 31% | 1020.7 hPa | 0 mm | - | - | - |
| 1777761080 | 20.56° C | 32% | 1020.7 hPa | 0 mm | - | - | - |
| 1777760777 | 20.56° C | 31% | 1020.9 hPa | 0 mm | - | - | - |
| 1777760473 | 20.56° C | 30% | 1020.9 hPa | 0 mm | - | - | - |
| 1777760168 | 20.56° C | 31% | 1020.9 hPa | 0 mm | - | - | - |
| 1777759866 | 21.67° C | 30% | 1020.7 hPa | 0 mm | - | - | - |
| 1777759562 | 21.11° C | 28% | 1021 hPa | 0 mm | - | - | - |
| 1777759258 | 21.11° C | 28% | 1021.1 hPa | 0 mm | - | - | - |
| 1777758955 | 21.11° C | 29% | 1021.2 hPa | 0 mm | - | - | - |
| 1777758652 | 21.67° C | 27% | 1021.3 hPa | 0 mm | - | - | - |
| 1777758349 | 21.11° C | 27% | 1021.4 hPa | 0 mm | - | - | - |
| 1777758047 | 21.11° C | 27% | 1021.4 hPa | 0 mm | - | - | - |
| 1777757743 | 21.11° C | 29% | 1021.3 hPa | 0 mm | - | - | - |
| 1777757441 | 21.11° C | 31% | 1021.7 hPa | 0 mm | - | - | - |
| 1777757140 | 21.11° C | 30% | 1022 hPa | 0 mm | - | - | - |
| 1777756837 | 20.56° C | 32% | 1021.8 hPa | 0 mm | - | - | - |
* Rain latest hour (hover to see other rain measurements)
** Current wind speed in m/s (hover to see current wind gust speed)